CAPE
4 0 0 11 16 35 23 3 45 61 193 325 599 177 66 664 681 481 404 530 628 721 511 401 625 937 822 734 571 508 165 3 0 14 88 252 391 142 247 391 474 235 180
29 34 0 6 67 46 27 47 63 68 57 131 279 494 143 2 197 343 483 260 383 467 618 309 603 712 528 435 443 268 46 7 12 30 15 0 255 282 253 358 659 296 376
44 114 31 5 44 45 12 61 67 74 87 55 80 201 303 337 41 170 262 357 330 566 450 225 291 516 448 317 468 204 117 34 48 38 2 0 16 158 231 289 535 446 456
96 63 115 40 9 64 84 72 59 83 117 94 47 11 53 135 420 415 204 347 414 462 450 355 254 468 397 644 676 216 140 88 47 23 1 0 9 38 119 329 263 308 390
112 33 153 76 27 3 65 56 44 66 91 105 63 27 13 18 92 132 631 369 706 719 523 723 496 560 578 589 521 174 71 63 17 9 0 0 0 17 77 200 161 147 249
6 54 79 124 72 69 41 42 27 25 48 54 32 16 3 0 13 65 211 625 441 377 253 832 776 584 471 554 401 161 137 35 22 2 6 5 0 9 23 115 101 72 71
0 13 29 74 131 109 88 131 116 28 32 43 27 9 0 0 1 0 70 226 571 317 326 581 564 610 484 452 349 244 110 21 27 9 3 0 0 23 28 61 61 51 36
0 0 0 35 71 72 95 104 102 101 119 77 77 76 8 0 8 14 2 5 85 370 290 331 556 521 390 347 372 234 61 0 6 10 3 4 18 1 56 48 61 52 35
0 2 9 37 42 69 114 98 117 98 102 71 52 44 73 50 9 28 19 18 1 108 329 224 340 431 456 321 251 146 15 0 0 6 9 6 19 0 0 45 67 78 78
0 4 3 17 29 28 26 66 78 85 79 73 43 33 46 40 76 35 39 39 20 51 165 250 403 423 377 265 138 47 5 0 0 0 4 21 26 0 0 29 77 91 91
0 0 0 0 0 0 0 0 0 0 0 0 0 2 13 21 54 104 74 49 36 46 51 304 480 380 194 60 2 0 0 0 0 0 4 45 6 0 0 12 62 90 71
0 0 0 0 0 0 0 0 0 0 0 0 0 0 0 0 4 83 126 104 62 56 77 121 384 330 126 23 2 0 0 0 0 0 0 21 0 0 0 22 52 79 71
0 0 0 0 0 0 0 0 0 0 0 0 0 0 0 0 0 21 122 145 91 45 80 82 158 323 157 29 3 2 0 0 0 0 0 8 0 0 4 47 89 97 73
0 0 0 0 0 0 0 0 0 0 0 0 0 0 0 0 0 0 11 110 122 91 36 51 73 191 154 116 7 9 0 0 0 0 0 0 7 0 0 64 64 86 91
0 0 0 0 0 0 0 0 0 0 0 0 0 0 0 0 0 0 0 7 72 105 90 68 42 98 160 117 33 19 11 0 0 0 0 0 0 7 1 54 72 82 85
0 0 0 0 0 0 0 0 0 0 0 0 0 0 0 0 0 0 0 0 0 46 71 67 61 42 165 141 160 46 43 9 0 0 0 0 0 0 20 44 68 78 75
0 0 0 0 0 0 0 0 0 0 0 0 0 0 0 0 0 0 0 0 0 0 11 73 67 238 124 137 115 173 140 36 1 0 0 0 0 0 13 48 74 71 59
0 0 0 0 0 0 0 0 0 0 0 0 0 0 0 0 0 0 0 0 0 0 0 2 54 253 500 151 169 154 172 40 0 2 0 0 0 0 0 34 47 60 64
0 0 0 0 0 0 0 0 0 0 0 0 0 0 0 0 0 0 0 0 0 0 0 0 2 84 151 225 185 123 173 113 24 0 0 0 0 0 0 0 11 38 73
0 0 0 0 0 0 0 0 0 0 0 0 0 0 0 0 0 0 0 0 0 0 0 0 0 1 138 135 173 133 80 107 51 2 0 0 0 0 0 0 0 0 19
0 0 0 0 0 0 0 0 0 0 0 0 0 0 0 0 0 0 0 0 0 0 0 0 0 0 28 192 224 180 125 94 52 16 0 0 0 0 0 0 0 0 5
0 0 0 0 0 0 0 0 0 0 0 0 0 0 0 0 0 0 0 0 0 0 0 0 0 0 0 35 24 44 106 74 56 33 17 0 0 0 0 0 0 0 0
0 0 0 0 0 0 0 0 0 0 0 0 0 0 0 0 0 0 0 0 0 0 0 0 0 0 0 2 17 23 73 76 17 16 11 1 0 0 0 0 0 0 0
0 0 0 0 0 0 0 0 0 0 0 0 0 0 0 0 0 0 0 0 0 0 0 0 0 0 0 0 10 142 41 58 37 11 2 0 1 0 0 0 0 0 0
0 0 0 0 0 0 0 0 0 0 0 0 0 0 0 0 0 0 0 0 0 0 0 0 0 0 0 0 0 15 96 23 24 39 11 0 4 1 0 0 0 0 0
0 0 0 0 0 0 0 0 0 0 0 0 0 0 0 0 0 0 0 0 0 0 0 0 0 0 0 0 0 10 27 34 9 43 34 2 0 1 0 0 0 0 0
CIN
-19 -0 -0 -147 -100 -60 -98 -30 -88 -61 -9 -1 -0 -14 -13 -1 -2 -5 -1 -1 -1 -0 -0 -0 -0 -0 -0 -0 -0 -0 -4 -7 -0 -7 -73 -33 -8 -78 -36 -9 -1 -11 -15
-103 -137 -0 -40 -90 -70 -100 -87 -66 -66 -51 -28 -5 -0 -3 -0 -2 -11 -1 -10 -1 -0 -0 -4 -1 -0 -0 -0 -0 -0 -33 -8 -15 -13 -18 -0 -26 -30 -47 -12 -0 -8 -0
-193 -75 -112 -41 -115 -98 -134 -82 -78 -79 -48 -73 -62 -1 -2 -2 -29 -3 -25 -11 -2 -1 -0 -34 -4 -1 -0 -0 -0 -3 -12 -30 -15 -24 -13 -0 -5 -59 -47 -32 -0 -1 -0
-69 -184 -61 -161 -184 -88 -81 -95 -101 -87 -52 -49 -83 -95 -55 -19 -0 -5 -1 -5 -1 -0 -2 -6 -4 -9 -5 -0 -0 -3 -18 -34 -14 -28 -2 -0 -2 -0 -92 -26 -41 -15 -0
-66 -152 -72 -80 -163 -44 -83 -93 -97 -101 -69 -59 -86 -108 -103 -88 -38 -11 -0 -4 -2 -2 -2 -2 -4 -3 -1 -1 -0 -5 -27 -24 -19 -6 -0 -0 -0 -0 -81 -50 -68 -59 -12
-254 -138 -112 -52 -90 -110 -137 -104 -70 -71 -123 -102 -113 -123 -92 -0 -115 -62 -18 -0 -5 -5 -7 -1 -1 -2 -1 -1 -2 -9 -19 -22 -35 -6 -12 -29 -0 -0 -0 -98 -102 -140 -58
-0 -213 -123 -73 -62 -84 -97 -81 -98 -168 -153 -123 -144 -147 -0 -0 -51 -0 -53 -23 -1 -33 -7 -2 -2 -4 -8 -16 -10 -7 -32 -25 -37 -15 -20 -0 -0 -0 -3 -0 -0 -0 -0
-0 -0 -0 -81 -69 -79 -72 -86 -87 -82 -89 -94 -83 -95 -79 -0 -143 -118 -45 -20 -76 -6 -20 -5 -2 -4 -29 -6 -11 -22 -50 -0 -19 -21 -30 -33 -4 -1 -1 -2 -0 -0 -0
-0 -77 -71 -63 -94 -78 -69 -86 -79 -87 -81 -100 -128 -80 -83 -109 -139 -130 -104 -121 -0 -62 -9 -12 -17 -10 -10 -17 -21 -40 -18 -0 -0 -48 -27 -41 -10 -0 -0 -1 -1 -63 -138
-0 -81 -105 -76 -63 -78 -84 -86 -89 -99 -100 -108 -120 -129 -113 -87 -81 -116 -77 -104 -181 -164 -52 -26 -12 -16 -13 -9 -26 -64 -29 -0 -0 -0 -47 -67 -21 -0 -0 -1 -156 -141 -147
-0 -0 -0 -0 -0 -0 -0 -0 -0 -0 -0 -0 -0 -128 -170 -121 -89 -63 -92 -88 -121 -178 -175 -33 -7 -18 -21 -45 -37 -0 -0 -0 -0 -0 -70 -48 -18 -0 -0 -15 -1 -170 -116
-0 -0 -0 -0 -0 -0 -0 -0 -0 -0 -0 -0 -0 -0 -0 -0 -116 -103 -69 -68 -110 -143 -119 -101 -39 -39 -93 -115 -107 -0 -0 -0 -0 -0 -0 -42 -0 -0 -0 -7 -2 -0 -22
-0 -0 -0 -0 -0 -0 -0 -0 -0 -0 -0 -0 -0 -0 -0 -0 -0 -158 -95 -70 -62 -140 -124 -88 -84 -75 -70 -149 -33 -7 -0 -0 -0 -0 -0 -50 -0 -0 -13 -8 -1 -147 -3
-0 -0 -0 -0 -0 -0 -0 -0 -0 -0 -0 -0 -0 -0 -0 -0 -0 -0 -33 -82 -65 -67 -104 -107 -95 -72 -97 -81 -152 -22 -2 -0 -0 -0 -0 -0 -29 -0 -0 -1 -6 -0 -151
-0 -0 -0 -0 -0 -0 -0 -0 -0 -0 -0 -0 -0 -0 -0 -0 -0 -0 -0 -43 -80 -51 -54 -73 -85 -48 -39 -64 -106 -85 -66 -0 -0 -0 -0 -0 -0 -11 -2 -7 -2 -1 -0
-0 -0 -0 -0 -0 -0 -0 -0 -0 -0 -0 -0 -0 -0 -0 -0 -0 -0 -0 -0 -0 -84 -49 -52 -59 -90 -27 -33 -53 -91 -68 -64 -0 -0 -0 -0 -0 -0 -8 -5 -5 -6 -0
-0 -0 -0 -0 -0 -0 -0 -0 -0 -0 -0 -0 -0 -0 -0 -0 -0 -0 -0 -0 -0 -0 -36 -50 -61 -14 -54 -27 -34 -36 -40 -54 -0 -0 -0 -0 -0 -0 -7 -6 -3 -2 -4
-0 -0 -0 -0 -0 -0 -0 -0 -0 -0 -0 -0 -0 -0 -0 -0 -0 -0 -0 -0 -0 -0 -0 -0 -79 -8 -0 -29 -22 -44 -18 -64 -0 -0 -0 -0 -0 -0 -0 -12 -9 -3 -2
-0 -0 -0 -0 -0 -0 -0 -0 -0 -0 -0 -0 -0 -0 -0 -0 -0 -0 -0 -0 -0 -0 -0 -0 -0 -82 -64 -19 -12 -42 -22 -38 -96 -0 -0 -0 -0 -0 -0 -0 -28 -24 -11
-0 -0 -0 -0 -0 -0 -0 -0 -0 -0 -0 -0 -0 -0 -0 -0 -0 -0 -0 -0 -0 -0 -0 -0 -0 -4 -63 -70 -41 -41 -71 -37 -55 -0 -0 -0 -0 -0 -0 -0 -0 -2 -36
-0 -0 -0 -0 -0 -0 -0 -0 -0 -0 -0 -0 -0 -0 -0 -0 -0 -0 -0 -0 -0 -0 -0 -0 -0 -0 -37 -30 -33 -36 -40 -44 -41 -3 -0 -0 -0 -0 -0 -0 -0 -0 -20
-0 -0 -0 -0 -0 -0 -0 -0 -0 -0 -0 -0 -0 -0 -0 -0 -0 -0 -0 -0 -0 -0 -0 -0 -0 -0 -0 -72 -68 -72 -46 -53 -40 -0 -0 -0 -0 -0 -0 -0 -0 -0 -0
-0 -0 -0 -0 -0 -0 -0 -0 -0 -0 -0 -0 -0 -0 -0 -0 -0 -0 -0 -0 -0 -0 -0 -0 -0 -0 -0 -0 -79 -41 -29 -118 -0 -2 -0 -0 -0 -0 -0 -0 -0 -0 -0
-0 -0 -0 -0 -0 -0 -0 -0 -0 -0 -0 -0 -0 -0 -0 -0 -0 -0 -0 -0 -0 -0 -0 -0 -0 -0 -0 -0 -2 -28 -11 -63 -46 -0 -0 -0 -0 -0 -0 -0 -0 -0 -0
-0 -0 -0 -0 -0 -0 -0 -0 -0 -0 -0 -0 -0 -0 -0 -0 -0 -0 -0 -0 -0 -0 -0 -0 -0 -0 -0 -0 -0 -32 -55 -2 -0 -16 -0 -0 -0 -0 -0 -0 -0 -0 -0
-0 -0 -0 -0 -0 -0 -0 -0 -0 -0 -0 -0 -0 -0 -0 -0 -0 -0 -0 -0 -0 -0 -0 -0 -0 -0 -0 -0 -0 -0 -0 -91 -0 -0 -0 -0 -0 -140 -0 -0 -0 -0 -0
Wind_Speed
nan nan nan nan nan nan nan nan nan nan 34 30 28 21 nan 18 17 18 17 16 14 12 12 14 14 18 16 16 14 13 11 nan nan nan nan 4 6 8 9 10 13 16 18
nan nan nan nan nan nan nan nan nan nan nan 34 34 30 23 nan 21 19 19 17 17 13 10 13 15 19 18 16 15 14 nan nan nan nan nan nan 2 7 6 10 12 14 15
nan 22 nan nan nan nan nan nan nan nan nan nan nan 36 32 26 nan 22 21 20 20 18 16 14 19 21 20 17 16 15 9 nan nan nan nan nan nan 5 3 7 11 12 11
nan nan 26 nan nan nan nan nan nan nan 41 nan nan nan nan 35 33 25 21 22 22 21 20 17 17 21 21 18 16 15 9 nan nan nan nan nan nan nan 3 5 8 10 8
36 nan 36 nan nan nan nan nan nan nan nan 41 nan nan nan nan nan 30 29 23 26 25 20 20 17 21 22 20 17 15 nan nan nan nan nan nan nan nan nan 3 7 8 8
nan nan nan 45 nan nan nan nan nan nan nan nan nan nan nan nan nan nan 32 29 26 26 24 22 21 20 22 21 19 15 13 nan nan nan nan nan nan nan nan 2 7 nan nan
nan nan nan nan 46 44 nan 44 45 nan nan nan nan nan nan nan nan nan nan 37 32 27 29 23 24 21 21 21 19 16 13 nan nan nan nan nan nan nan nan nan nan nan nan
nan nan nan nan nan nan nan 46 48 49 46 nan nan nan nan nan nan nan nan nan nan 37 30 27 27 23 22 20 19 16 nan nan nan nan nan nan nan nan nan nan nan nan nan
nan nan nan nan nan nan 48 nan 48 nan 48 nan nan nan nan nan nan nan nan nan nan 37 35 29 28 26 23 21 19 20 nan nan nan nan nan nan nan nan nan nan nan nan nan
nan nan nan nan nan nan nan nan nan nan nan nan nan nan nan nan nan nan nan nan nan nan 37 33 29 28 26 23 21 nan nan nan nan nan nan nan nan nan nan nan nan nan nan
nan nan nan nan nan nan nan nan nan nan nan nan nan nan nan nan nan 41 nan nan nan nan nan 34 32 30 29 nan nan nan nan nan nan nan nan nan nan nan nan nan nan nan nan
nan nan nan nan nan nan nan nan nan nan nan nan nan nan nan nan nan nan 40 43 nan nan nan 52 33 32 31 nan nan nan nan nan nan nan nan nan nan nan nan nan nan nan nan
nan nan nan nan nan nan nan nan nan nan nan nan nan nan nan nan nan nan 37 40 nan nan nan nan 49 37 34 nan nan nan nan nan nan nan nan nan nan nan nan nan nan nan nan
nan nan nan nan nan nan nan nan nan nan nan nan nan nan nan nan nan nan nan 37 40 nan nan nan nan 34 37 32 nan nan nan nan nan nan nan nan nan nan nan nan nan nan nan
nan nan nan nan nan nan nan nan nan nan nan nan nan nan nan nan nan nan nan nan nan 40 nan nan nan nan 28 37 nan nan nan nan nan nan nan nan nan nan nan nan nan nan nan
nan nan nan nan nan nan nan nan nan nan nan nan nan nan nan nan nan nan nan nan nan nan nan nan nan nan 43 33 33 nan nan nan nan nan nan nan nan nan nan nan nan nan nan
nan nan nan nan nan nan nan nan nan nan nan nan nan nan nan nan nan nan nan nan nan nan nan nan nan 37 33 41 51 34 39 nan nan nan nan nan nan nan nan nan nan nan nan
nan nan nan nan nan nan nan nan nan nan nan nan nan nan nan nan nan nan nan nan nan nan nan nan nan 45 42 38 34 50 42 nan nan nan nan nan nan nan nan nan nan nan nan
nan nan nan nan nan nan nan nan nan nan nan nan nan nan nan nan nan nan nan nan nan nan nan nan nan nan 48 47 42 39 50 52 nan nan nan nan nan nan nan nan nan nan nan
nan nan nan nan nan nan nan nan nan nan nan nan nan nan nan nan nan nan nan nan nan nan nan nan nan nan 52 48 47 45 nan 54 nan nan nan nan nan nan nan nan nan nan nan
nan nan nan nan nan nan nan nan nan nan nan nan nan nan nan nan nan nan nan nan nan nan nan nan nan nan nan 59 54 44 52 nan nan nan nan nan nan nan nan nan nan nan nan
nan nan nan nan nan nan nan nan nan nan nan nan nan nan nan nan nan nan nan nan nan nan nan nan nan nan nan nan nan nan 56 nan nan nan nan nan nan nan nan nan nan nan nan
nan nan nan nan nan nan nan nan nan nan nan nan nan nan nan nan nan nan nan nan nan nan nan nan nan nan nan nan nan nan nan nan nan nan nan nan nan nan nan nan nan nan nan
nan nan nan nan nan nan nan nan nan nan nan nan nan nan nan nan nan nan nan nan nan nan nan nan nan nan nan nan nan 62 nan nan nan nan nan nan nan nan nan nan nan nan nan
nan nan nan nan nan nan nan nan nan nan nan nan nan nan nan nan nan nan nan nan nan nan nan nan nan nan nan nan nan nan nan nan nan nan nan nan nan nan nan nan nan nan nan
nan nan nan nan nan nan nan nan nan nan nan nan nan nan nan nan nan nan nan nan nan nan nan nan nan nan nan nan nan nan nan nan nan nan nan nan nan nan nan nan nan nan nan
Wind_Direction
nan nan nan nan nan nan nan nan nan nan 217 219 221 229 nan 234 225 232 231 233 251 255 255 245 233 242 243 247 253 268 278 nan nan nan nan 256 269 288 305 328 352 6 346
nan nan nan nan nan nan nan nan nan nan nan 224 219 221 221 nan 228 220 224 226 225 250 247 253 236 242 242 249 263 273 nan nan nan nan nan nan 285 289 305 337 344 350 343
nan 233 nan nan nan nan nan nan nan nan nan nan nan 221 221 217 nan 224 219 221 226 239 230 246 253 247 247 252 261 272 286 nan nan nan nan nan nan 291 300 338 336 334 330
nan nan 225 nan nan nan nan nan nan nan 220 nan nan nan nan 217 219 222 220 223 224 232 235 242 258 262 252 249 255 266 268 nan nan nan nan nan nan nan 292 313 327 324 328
243 nan 231 nan nan nan nan nan nan nan nan 224 nan nan nan nan nan 223 217 226 228 225 234 251 253 260 261 255 255 264 nan nan nan nan nan nan nan nan nan 290 334 332 331
nan nan nan 230 nan nan nan nan nan nan nan nan nan nan nan nan nan nan 224 220 229 228 230 250 257 257 258 259 257 255 253 nan nan nan nan nan nan nan nan 257 316 nan nan
nan nan nan nan 229 230 nan 229 229 nan nan nan nan nan nan nan nan nan nan 226 224 227 233 241 256 257 253 258 260 253 250 nan nan nan nan nan nan nan nan nan nan nan nan
nan nan nan nan nan nan nan 228 231 232 233 nan nan nan nan nan nan nan nan nan nan 224 233 240 252 251 253 249 258 248 nan nan nan nan nan nan nan nan nan nan nan nan nan
nan nan nan nan nan nan 234 nan 228 nan 228 nan nan nan nan nan nan nan nan nan nan 232 233 242 248 250 249 252 244 250 nan nan nan nan nan nan nan nan nan nan nan nan nan
nan nan nan nan nan nan nan nan nan nan nan nan nan nan nan nan nan nan nan nan nan nan 231 249 249 251 250 251 250 nan nan nan nan nan nan nan nan nan nan nan nan nan nan
nan nan nan nan nan nan nan nan nan nan nan nan nan nan nan nan nan 247 nan nan nan nan nan 234 253 255 253 nan nan nan nan nan nan nan nan nan nan nan nan nan nan nan nan
nan nan nan nan nan nan nan nan nan nan nan nan nan nan nan nan nan nan 242 242 nan nan nan 223 229 250 254 nan nan nan nan nan nan nan nan nan nan nan nan nan nan nan nan
nan nan nan nan nan nan nan nan nan nan nan nan nan nan nan nan nan nan 246 250 nan nan nan nan 232 238 243 nan nan nan nan nan nan nan nan nan nan nan nan nan nan nan nan
nan nan nan nan nan nan nan nan nan nan nan nan nan nan nan nan nan nan nan 248 253 nan nan nan nan 224 249 241 nan nan nan nan nan nan nan nan nan nan nan nan nan nan nan
nan nan nan nan nan nan nan nan nan nan nan nan nan nan nan nan nan nan nan nan nan 257 nan nan nan nan 241 253 nan nan nan nan nan nan nan nan nan nan nan nan nan nan nan
nan nan nan nan nan nan nan nan nan nan nan nan nan nan nan nan nan nan nan nan nan nan nan nan nan nan 270 264 259 nan nan nan nan nan nan nan nan nan nan nan nan nan nan
nan nan nan nan nan nan nan nan nan nan nan nan nan nan nan nan nan nan nan nan nan nan nan nan nan 252 256 268 284 249 271 nan nan nan nan nan nan nan nan nan nan nan nan
nan nan nan nan nan nan nan nan nan nan nan nan nan nan nan nan nan nan nan nan nan nan nan nan nan 254 254 253 265 282 269 nan nan nan nan nan nan nan nan nan nan nan nan
nan nan nan nan nan nan nan nan nan nan nan nan nan nan nan nan nan nan nan nan nan nan nan nan nan nan 254 251 249 258 274 272 nan nan nan nan nan nan nan nan nan nan nan
nan nan nan nan nan nan nan nan nan nan nan nan nan nan nan nan nan nan nan nan nan nan nan nan nan nan 258 255 250 248 nan 270 nan nan nan nan nan nan nan nan nan nan nan
nan nan nan nan nan nan nan nan nan nan nan nan nan nan nan nan nan nan nan nan nan nan nan nan nan nan nan 257 249 251 261 nan nan nan nan nan nan nan nan nan nan nan nan
nan nan nan nan nan nan nan nan nan nan nan nan nan nan nan nan nan nan nan nan nan nan nan nan nan nan nan nan nan nan 253 nan nan nan nan nan nan nan nan nan nan nan nan
nan nan nan nan nan nan nan nan nan nan nan nan nan nan nan nan nan nan nan nan nan nan nan nan nan nan nan nan nan nan nan nan nan nan nan nan nan nan nan nan nan nan nan
nan nan nan nan nan nan nan nan nan nan nan nan nan nan nan nan nan nan nan nan nan nan nan nan nan nan nan nan nan 264 nan nan nan nan nan nan nan nan nan nan nan nan nan
nan nan nan nan nan nan nan nan nan nan nan nan nan nan nan nan nan nan nan nan nan nan nan nan nan nan nan nan nan nan nan nan nan nan nan nan nan nan nan nan nan nan nan
nan nan nan nan nan nan nan nan nan nan nan nan nan nan nan nan nan nan nan nan nan nan nan nan nan nan nan nan nan nan nan nan nan nan nan nan nan nan nan nan nan nan nan